EW9675 Weather Reports


time (UTC)temp
F
wind
direction
speed
knots
gust
knots
rain 1hr
in
rain 24hr
in
rain mn
in
humidity
%
barometer
mb
20260504210004 54 132 0.0 2.6 0.00 0.53 0.05 93 1020.7
20260504205504 54 132 0.0 2.6 0.02 0.53 0.05 93 1020.6
20260504205004 54 132 0.9 0.9 0.02 0.54 0.05 93 1020.5
20260504204525 54 133 0.9 4.3 0.02 0.54 0.05 93 1020.5
20260504204004 55 133 0.0 4.3 0.02 0.54 0.05 93 1020.4
20260504203504 55 134 2.6 2.6 0.02 0.54 0.05 93 1020.5
20260504203004 55 0 0.0 0.0 0.02 0.54 0.05 93 1020.4
20260504202504 55 0 0.0 0.0 0.02 0.54 0.05 93 1020.4
20260504202004 55 0 0.0 0.0 0.02 0.54 0.05 93 1020.3
20260504201504 55 138 4.3 4.3 0.02 0.54 0.05 93 1020.3
20260504201004 54 138 4.3 4.3 0.02 0.58 0.05 93 1020.3
20260504200504 54 0 0.0 0.0 0.02 0.62 0.05 93 1020.2
20260504200004 54 0 0.0 0.0 0.02 0.63 0.05 93 1020.2
20260504195504 54 0 0.0 0.0 0.00 0.62 0.03 93 1020.3
20260504195004 54 0 0.0 0.0 0.00 0.69 0.03 92 1020.2
20260504194504 54 0 0.0 0.0 0.00 0.69 0.03 92 1020.1
20260504194004 54 0 0.0 0.0 0.00 0.70 0.03 92 1020.0
20260504193503 54 0 0.0 0.0 0.00 0.71 0.03 93 1020.0
20260504193004 54 0 0.0 0.0 0.00 0.72 0.03 93 1019.9
20260504192504 54 0 0.0 0.0 0.00 0.72 0.03 92 1019.9
20260504192004 54 0 0.0 0.0 0.00 0.78 0.03 92 1019.9
20260504191525 54 174 0.0 0.9 0.00 0.78 0.03 92 1019.9
20260504191025 55 174 0.0 0.9 0.00 0.78 0.03 92 1019.9
20260504190504 55 173 0.0 0.9 0.01 0.78 0.03 92 1019.9
20260504190004 55 174 0.0 0.9 0.01 0.79 0.03 92 1019.8
20260504185504 55 174 0.0 0.9 0.02 0.79 0.03 92 1019.8
20260504185004 55 0 0.0 0.0 0.02 0.79 0.03 92 1019.8
20260504184504 55 0 0.0 0.0 0.02 0.79 0.03 92 1019.7
20260504184004 56 174 0.0 0.9 0.02 0.80 0.03 92 1019.6
20260504183504 56 174 0.9 2.6 0.02 0.81 0.03 92 1019.6
20260504183004 56 175 0.9 4.3 0.02 0.81 0.03 92 1019.5
20260504182525 56 176 0.0 4.3 0.02 0.81 0.03 92 1019.5
20260504182003 56 0 0.0 0.0 0.02 0.81 0.03 92 1019.5
20260504181503 56 311 0.9 0.9 0.02 0.81 0.03 92 1019.5
20260504181004 56 288 0.9 4.3 0.02 0.81 0.03 92 1019.5
20260504180503 56 247 0.0 4.3 0.01 0.80 0.02 92 1019.5
20260504180004 56 137 0.0 2.6 0.01 0.80 0.02 92 1019.5
20260504175504 56 137 0.0 0.9 0.00 0.80 0.02 92 1019.5
20260504175004 56 137 0.0 0.9 0.00 0.80 0.02 92 1019.6
20260504174503 56 137 0.9 0.9 0.00 0.80 0.02 92 1019.6
20260504174004 56 138 0.9 2.6 0.00 0.80 0.02 92 1019.6
20260504173504 56 138 0.9 2.6 0.00 0.80 0.02 92 1019.5
20260504173004 56 138 0.0 2.6 0.00 0.81 0.02 92 1019.6
20260504172525 56 138 0.0 2.6 0.00 0.81 0.02 92 1019.7
20260504172004 56 138 0.0 2.6 0.01 0.81 0.02 92 1019.8
20260504171504 56 0 0.0 0.0 0.01 0.82 0.02 92 1019.7
20260504171004 56 0 0.0 0.0 0.01 0.82 0.02 92 1019.8
20260504170504 56 0 0.0 0.0 0.01 0.82 0.02 92 1019.8
20260504151004 54 88 3.5 5.2 0.01 0.83 0.01 91 1019.5
20260504150525 54 76 3.5 4.3 0.01 0.83 0.01 91 1019.5
20260504141004 56 84 0.9 2.6 0.00 0.83 0.83 90 1019.2
20260504140525 56 58 0.9 4.3 0.00 0.83 0.83 90 1019.3
20260504130504 57 0 0.0 0.0 0.01 0.83 0.83 88 1019.0
20260504082004 61 270 5.2 8.7 0.00 0.84 0.82 80 1015.8
20260504081504 61 284 4.3 8.7 0.00 0.84 0.82 80 1015.8
20260504081004 61 293 3.5 8.7 0.00 0.84 0.82 81 1015.7
20260504080504 61 298 4.3 8.7 0.00 0.84 0.82 81 1015.7
20260504050504 67 247 12.2 20.9 0.00 0.86 0.82 63 1014.1
20260504050004 66 255 11.3 20.0 0.00 0.86 0.82 65 1014.0
20260504045504 66 257 11.3 20.9 0.00 0.86 0.82 64 1014.0
20260504045004 67 252 10.4 20.9 0.00 0.86 0.82 64 1013.9
20260504044504 66 240 9.6 17.4 0.00 0.86 0.82 64 1013.8
20260504044004 66 227 10.4 17.4 0.00 0.86 0.82 66 1013.8
20260504043504 66 222 11.3 20.9 0.00 0.86 0.82 65 1013.8
20260504043004 66 224 12.2 20.9 0.00 0.86 0.82 66 1013.6
20260504042504 66 237 11.3 20.0 0.00 0.86 0.82 68 1013.7
20260504042004 65 243 9.6 21.7 0.00 0.86 0.82 67 1013.7
20260504041504 66 243 9.6 21.7 0.00 0.86 0.82 66 1013.6
20260504041004 66 249 10.4 20.0 0.00 0.86 0.82 67 1013.7
20260504040525 67 252 12.2 20.0 0.00 0.86 0.82 66 1013.6
20260504040004 67 256 13.0 20.9 0.00 0.86 0.82 67 1013.7
20260504035505 66 261 13.0 24.3 0.00 0.86 0.82 67 1013.7
20260504035004 66 259 12.2 24.3 0.00 0.86 0.82 68 1013.6
20260504034525 66 254 11.3 24.3 0.00 0.86 0.82 66 1013.7
20260504034004 66 255 11.3 20.9 0.00 0.86 0.82 67 1013.6
20260504033504 66 253 13.0 20.9 0.00 0.86 0.82 69 1013.8
20260504033004 66 248 13.0 20.9 0.00 0.86 0.82 69 1013.7
20260504032525 65 241 13.0 25.2 0.00 0.86 0.82 68 1013.7
20260504032004 66 239 13.0 25.2 0.00 0.86 0.82 68 1013.6
20260504031505 65 247 12.2 27.8 0.00 0.86 0.82 69 1013.7
20260504031004 66 250 11.3 27.8 0.00 0.86 0.82 69 1013.8
20260504030504 65 254 11.3 23.5 0.00 0.86 0.82 71 1013.7
20260504030004 66 259 11.3 21.7 0.05 0.86 0.82 71 1013.8
20260504025504 65 264 11.3 26.1 0.05 0.86 0.82 73 1013.9
20260504025003 65 264 10.4 26.1 0.05 0.86 0.82 75 1013.9
20260504024504 64 256 9.6 16.5 0.05 0.86 0.82 77 1013.9
20260504024004 64 251 9.6 16.5 0.05 0.86 0.82 80 1013.9
20260504023504 63 252 9.6 16.5 0.05 0.86 0.82 83 1013.9
20260504023004 62 262 9.6 21.7 0.05 0.86 0.82 83 1014.0
20260504022504 62 261 8.7 21.7 0.05 0.86 0.82 85 1014.1
20260504022025 62 255 9.6 16.5 0.05 0.86 0.82 87 1014.1
20260504021504 61 255 11.3 16.5 0.05 0.86 0.82 86 1014.1
20260504021025 60 261 12.2 27.8 0.05 0.86 0.82 84 1014.1
20260504020504 61 264 12.2 27.8 0.06 0.86 0.82 80 1014.2
20260504020004 64 264 12.2 20.9 0.02 0.81 0.77 78 1013.9
20260504015504 63 260 11.3 20.9 0.02 0.81 0.77 78 1013.9
20260504015004 63 257 11.3 20.0 0.02 0.81 0.77 78 1014.0
20260504014504 64 258 10.4 21.7 0.02 0.81 0.77 78 1013.9
20260504014004 64 249 9.6 21.7 0.02 0.81 0.77 79 1013.9
20260504013504 63 242 9.6 16.5 0.02 0.81 0.77 81 1013.9
20260504013004 62 251 10.4 21.7 0.02 0.81 0.77 84 1013.9
20260504012504 62 249 9.6 21.7 0.02 0.81 0.77 83 1013.9
20260504012004 62 252 9.6 20.9 0.02 0.81 0.77 85 1013.9
20260504011525 61 256 11.3 17.4 0.02 0.81 0.77 86 1013.9
20260504011004 61 256 11.3 29.5 0.02 0.81 0.77 85 1013.8
20260504010504 61 260 10.4 29.5 0.01 0.80 0.76 82 1013.8
20260504010004 63 262 10.4 17.4 0.00 0.80 0.76 83 1013.6
20260504005504 62 259 9.6 16.5 0.00 0.80 0.76 84 1013.6
20260504005004 62 252 10.4 15.6 0.00 0.80 0.76 86 1013.5
20260504004503 61 257 11.3 16.5 0.00 0.80 0.76 88 1013.6
20260504004004 61 265 11.3 23.5 0.00 0.80 0.76 89 1013.5
20260504003525 61 270 11.3 23.5 0.00 0.80 0.76 90 1013.5
20260504003025 61 275 11.3 20.0 0.00 0.80 0.76 92 1013.4
20260504002504 60 273 10.4 20.0 0.00 0.80 0.76 93 1013.3
20260504002004 60 275 8.7 20.0 0.00 0.80 0.76 93 1013.3
20260504001504 60 277 7.8 15.6 0.00 0.80 0.76 93 1013.3
20260504001004 60 273 8.7 14.8 0.00 0.80 0.76 94 1013.2
20260504000504 59 273 8.7 20.0 0.00 0.80 0.76 94 1013.3
20260504000003 59 275 8.7 20.0 0.00 0.80 0.76 94 1013.3
20260503235525 59 277 8.7 15.6 0.00 0.80 0.76 94 1013.2
20260503235003 59 275 7.0 17.4 0.00 0.80 0.76 94 1013.2
20260503234503 59 279 6.1 17.4 0.00 0.80 0.76 94 1013.1
20260503234004 59 286 6.1 11.3 0.03 0.80 0.76 94 1013.0
20260503233503 59 291 6.1 11.3 0.09 0.80 0.76 94 1012.9
20260503233004 59 291 6.1 9.6 0.17 0.80 0.76 94 1012.9
20260503232504 59 297 7.0 9.6 0.17 0.80 0.76 94 1012.8
20260503232003 58 302 7.0 9.6 0.17 0.80 0.76 94 1012.8
20260503231504 58 300 7.0 11.3 0.17 0.80 0.76 94 1012.7
20260503231003 58 293 7.0 11.3 0.18 0.80 0.76 94 1012.7
20260503230503 58 287 7.0 9.6 0.24 0.80 0.76 94 1012.6
20260503230004 58 283 7.0 12.2 0.24 0.80 0.76 94 1012.6
20260503225524 58 272 5.2 12.2 0.25 0.80 0.76 94 1012.4
20260503225003 58 252 4.3 13.0 0.30 0.80 0.76 94 1012.3
20260503224525 57 255 7.0 13.0 0.34 0.80 0.76 94 1012.2
20260503224024 57 302 10.4 15.6 0.31 0.77 0.72 94 1012.1
20260503223504 57 311 11.3 16.5 0.28 0.72 0.67 94 1012.1
20260503223004 57 309 12.2 16.5 0.19 0.63 0.58 94 1011.9
20260503222525 57 306 12.2 23.5 0.19 0.63 0.58 94 1011.9
20260503222024 57 310 11.3 24.3 0.19 0.63 0.58 94 1011.7
20260503221504 57 308 11.3 24.3 0.20 0.63 0.58 94 1011.5
20260503221003 57 306 10.4 26.1 0.21 0.62 0.57 94 1011.7
20260503220504 57 311 7.8 26.1 0.17 0.57 0.52 94 1011.4
20260503220003 57 314 7.0 15.6 0.17 0.56 0.51 93 1011.6
20260503215503 57 309 7.0 13.0 0.16 0.55 0.50 94 1011.5
20260503215003 57 296 7.8 11.3 0.12 0.50 0.46 94 1011.4
20260503214504 57 293 9.6 14.8 0.08 0.46 0.42 94 1011.4
20260503214024 57 308 9.6 17.4 0.07 0.46 0.41 93 1011.4
20260503213504 57 314 9.6 17.4 0.06 0.44 0.39 93 1011.2
20260503213004 57 310 7.0 16.5 0.06 0.44 0.39 93 1011.3
20260503212504 57 309 6.1 16.5 0.06 0.44 0.39 93 1011.2
20260503212004 56 301 6.1 12.2 0.06 0.44 0.39 93 1011.3
20260503211504 56 300 7.0 9.6 0.06 0.43 0.39 93 1011.3
20260503211003 56 313 7.0 11.3 0.07 0.41 0.36 93 1011.2
20260503210525 56 319 7.0 12.2 0.10 0.40 0.35 93 1011.2